Location: Newark
(25.4800°N, 85.7200°E)
Time: 09:44:34
(UTC+00:00)

Explorer 11/Cluster Stage 4 - Pass Details

Date: 20 August 2019
Orbit: 467 x 1259 km, 28.8° (Epoch: 21 October)

Event Time Altitude Azimuth Distance (km) Brightness Sun altitude
Rises 06:46:50 0° 262° (W) 4,198 10.4 75.6°
Reaches altitude 10° 06:49:50 10° 264° (W) 3,216 10.0 75.3°
Maximum altitude 06:58:02 77° 349° (N) 1,194 8.9 74.3°
Drops below altitude 10° 07:05:12 10° 76° (ENE) 2,829 9.4 73.3°
Sets 07:07:42 0° 78° (ENE) 3,672 9.9 72.9°
